Location: Rouyn
(48.2500°N, 79.0330°W)
Time: 01:48:39
(UTC-04:00)

ISS - Visible Passes

Search period start: 30 September 2023 00:00
Search period end: 10 October 2023 00:00
Orbit: 414 x 421 km, 51.6° (Epoch: 29 September)

Date Brightness Start Highest point End Pass type
(mag) Time Alt. Az. Time Alt. Az. Time Alt. Az.
30 Sep -2.8 20:17:26 10° WNW 20:20:37 41° SSW 20:22:29 20° SSE visible
01 Oct -3.4 19:29:16 10° WNW 19:32:35 62° SSW 19:35:54 10° SE visible
01 Oct -1.0 21:07:23 10° WSW 21:08:48 12° SW 21:09:27 12° SSW visible
02 Oct -1.4 20:18:25 10° W 20:20:51 19° SW 20:23:17 10° S visible
03 Oct -1.9 19:29:50 10° W 19:32:46 28° SW 19:35:42 10° SSE visible
05 Oct -0.8 19:30:53 10° WSW 19:32:28 13° SW 19:34:03 10° SSW visible
